Weather Service Report


114 
ASUS42 KFFC 221803
RWRGA 
WEATHER ROUNDUP FOR GEORGIA
NATIONAL WEATHER SERVICE PEACHTREE CITY GA
200 PM EDT MON SEP 22 2014

NOTE: "FAIR" INDICATES FEW OR NO CLOUDS BELOW 12,000 FEET WITH NO
SIGNIFICANT WEATHER AND/OR OBSTRUCTIONS TO VISIBILITY. 

* = USE WITH CAUTION. THE STATIONS MARKED WITH AN ASTERISK MAY NOT
REPORT WEATHER SUCH AS PRECIPITATION, FOG, OR THUNDER AND ARE NOT 
QUALITY CONTROLLED BY NWS.

THE REMARK "TC" DENOTES TEMPERATURE READING IN DEGREES CELSIUS.

GAZ001>058-221900-
NORTH GEORGIA
  
CITY           SKY/WX    TMP DP  RH WIND       PRES   REMARKS
ATLANTA        MOSUNNY   78  51  38 VRB3      30.06F                  
6HR MIN TEMP:  64; 6HR MAX TEMP:  79; 6HR PCP:  0.02;                

ATHENS         CLOUDY    73  60  63 NE3       30.07S                  
6HR MIN TEMP:  69; 6HR MAX TEMP:  76; 6HR PCP: TRACE;                

CHAMBLEE       MOSUNNY   79  48  33 N7        30.06F                  
6HR MIN TEMP:  65; 6HR MAX TEMP:  79;                                

PEACHTREE CITY MOSUNNY   78  49  35 NW7       30.07F                  
6HR MIN TEMP:  64; 6HR MAX TEMP:  78; 6HR PCP: TRACE;                

ROME           SUNNY     76  49  38 N16G24    30.10F                  
6HR MIN TEMP:  59; 6HR MAX TEMP:  77;                                

WEST ATLANTA   SUNNY     77  49  37 NW9       30.06F                  
6HR MIN TEMP:  64; 6HR MAX TEMP:  78;                                

GAINESVILLE    PTSUNNY   76  53  44 CALM      30.08F                  
6HR MIN TEMP:  64; 6HR MAX TEMP:  78;                                

CARTERSVILLE   SUNNY     75  51  43 VRB5G21   30.09F                  
6HR MIN TEMP:  59; 6HR MAX TEMP:  77;                                


  
CITY           SKY/WX    TMP DP  RH WIND       PRES   REMARKS
DALTON*        SUNNY     72  50  46 N9G18     30.12F                  
LAWRENCEVILLE* SUNNY     79  48  34 CALM      30.06F                  
MARIETTA       MOSUNNY   78  53  42 NW9       30.08S                  
KENNESAW*      MOSUNNY   75  52  43 NW8       30.10S                  
$$

GAZ059>098-102>109-221900-
CENTRAL GEORGIA
  
CITY           SKY/WX    TMP DP  RH WIND       PRES   REMARKS
AUGUSTA-BUSH   LGT RAIN  70  61  73 NE6       30.04S                  
6HR MIN TEMP:  69; 6HR MAX TEMP:  75; 6HR PCP: TRACE;                

AUGUSTA-DANIEL CLOUDY    72  58  61 N7        30.06F                  
6HR MIN TEMP:  69; 6HR MAX TEMP:  75; 6HR PCP:  0.13;                

COLUMBUS       LGT RAIN  65  62  90 CALM      30.07F                  
6HR MIN TEMP:  64; 6HR MAX TEMP:  73; 6HR PCP:  0.15;                

MACON          TSTM      66  66 100 W5        30.06R FOG              
6HR MIN TEMP:  66; 6HR MAX TEMP:  76; 6HR PCP:  0.41;                

ROBINS AFB     TSTM      68  67  95 NW6       30.05S FOG              

  
CITY           SKY/WX    TMP DP  RH WIND       PRES   REMARKS
LAGRANGE*      CLOUDY    80  60  49 N6        30.07F                  
SYLVANIA*      SUNNY     90  73  58 CALM      30.00S HX  97           
$$

GAZ099>101-110>166-221900-
SOUTH GEORGIA
  
CITY           SKY/WX    TMP DP  RH WIND       PRES   REMARKS
SAVANNAH       MOSUNNY   89  66  46 SW7       29.99F HX  91           
6HR MIN TEMP:  68; 6HR MAX TEMP:  89;                                

VALDOSTA       MOSUNNY   88  64  44 VRB7      30.01F                  
6HR MIN TEMP:  63; 6HR MAX TEMP:  88;                                

ALMA           SUNNY     88  63  43 SW8       30.00F                  
6HR MIN TEMP:  63; 6HR MAX TEMP:  89;                                

ST SIMONS      SUNNY     85  67  54 SE9       30.01S                  
6HR MIN TEMP:  71; 6HR MAX TEMP:  86;                                

FT STEWART     MOSUNNY   88  65  46 VRB5      29.98F HX  90           
ALBANY         PTSUNNY   87  67  51 W5        30.02S HX  90           
HUNTER AFB     SUNNY     88  67  49 SW9       29.98F HX  90           
MOODY AFB      MOSUNNY   89  64  44 VRB2      30.01F HX  90           
BRUNSWICK      SUNNY     88  59  37 CALM      30.01S                  

  
CITY           SKY/WX    TMP DP  RH WIND       PRES   REMARKS
BAINBRIDGE*    SUNNY     91  68  46 SW3       30.00F HX  95           
MOULTRIE*      MOSUNNY   86  64  48 NW3       30.03R                  
VIDALIA*       MOSUNNY   88  68  51 W8        30.00F HX  91           
WAYCROSS*      SUNNY     91  66  44 W3        30.00  HX  93           
DOUGLAS*       MOSUNNY   90  63  40 SW6       30.02S HX  90           
$$

Return to Home page


Western Regional Climate Center, wrcc@dri.edu